Home Music Articles Forums Blog Chat More...      
elfdaughter
(Averil "Tincolindo" White)


Member Since: Monday, September 12 2005 @ 09:04 AM CDT
Contact: send a note
Homepage: http://Www.facebook.com/Tincolindomusic
Location: Newcastle upon Tyne, UK
Song Comments: 530
Song Votes: 54
Forum Posts: 213
Weekly Points: 0.00
Total Points: 3119.40
Bio:




Jamendo : Free music







A medieval re-enactor, seamstress, craftswoman and general dogsbody.....

elfdaughter's Songs (186)
Date Title Rating Hits Genre Last Comment Status
10.01.17 The Kynges Ballade 0.00 (0) 67 (1) Folk (traditional) 10.17.17 Active
02.20.17 Summer Rain 0.00 (0) 545 (13) Cinematic Soundtrack 02.26.17 Active
01.20.16 Sanctuary of the Star 0.00 (0) 1051 (9) Cinematic Soundtrack 01.30.17 Active
12.01.15 Face the Dragon (updated Vocals) 0.00 (0) 831 (4) Cinematic Soundtrack 12.25.15 Active
11.30.15 Face the Dragon 0.00 (0) 491 (0) Cinematic Soundtrack N/A Active
11.30.15 Peace between Nations 0.00 (0) 517 (1) Cinematic Soundtrack 12.07.15 Active
11.25.15 Angel's Call 0.00 (0) 641 (3) Ambient 12.07.15 Active
11.24.15 Gymnopedie 0.00 (0) 530 (2) Classical 11.30.15 Active
11.22.15 The Female Highwayman 0.00 (0) 660 (4) Folk (traditional) 12.01.15 Active
11.21.15 Carol of the Bells 2015 0.00 (0) 866 (7) Folk (contemporary) 11.27.15 Active
02.09.15 Men of Dale 0.00 (0) 1127 (4) Film Scoring 02.11.15 Active
02.01.15 Sorrow of Erebor 0.00 (0) 1052 (11) Cinematic Soundtrack 02.11.15 Active
02.01.15 Forests of Lorien 0.00 (0) 704 (2) Cinematic Soundtrack 02.04.15 Active
01.28.15 Now is the time of Winter 0.00 (0) 1191 (4) A Cappella 02.01.15 Active
01.27.15 Natura 0.00 (0) 1024 (6) Cinematic Soundtrack 02.02.15 Active
04.06.13 Rose Red 0.00 (0) 1164 (1) Folk (traditional) 04.08.13 Active
04.04.13 The Tale of Woe 0.00 (0) 819 (2) Folk (contemporary) 04.05.13 Active
03.23.13 Blind Harper 2 0.00 (0) 811 (4) Classical 03.30.13 Active
12.14.12 Carol of the Bells 2012 0.00 (0) 1056 (5) Holiday 12.18.12 Active
12.08.12 God Rest Ye.... 0.00 (0) 1051 (3) A Cappella 12.11.12 Active
11.16.12 The Wind in the Willows (Namariae) 0.00 (0) 1441 (8) A Cappella 12.06.12 Active
10.26.12 A Gown of Seaweed Green 0.00 (0) 1765 (22) A Cappella 11.06.12 Active
07.29.12 Light and Shadow 10.00 (1) 1049 (3) Classical 07.29.12 Active
06.09.12 Rain In The Desert 0.00 (0) 1195 (2) New Age 06.18.12 Active
04.20.12 Blind Harper 0.00 (0) 1117 (3) Folk (traditional) 04.22.12 Active
10.18.11 Carol of the Bells 2011 0.00 (0) 1665 (4) Holiday 10.21.11 Active
10.15.11 O'er the Hills and Far Away 10.00 (1) 1649 (6) Folk (traditional) 10.18.11 Active
05.29.11 Shaolin v2 0.00 (0) 1724 (11) Game Soundtrack 06.01.11 Active
05.27.11 Shaloin 0.00 (0) 1333 (6) Game Soundtrack 05.29.11 Active
05.26.11 Atlantis V2 (different vocals) 0.00 (0) 1227 (2) Game Soundtrack 05.28.11 Active
05.25.11 Atlantis (rough take 1) 10.00 (1) 1138 (3) Game Soundtrack 05.25.11 Active
11.26.10 Gabriel's Message 0.00 (0) 1649 (3) Holiday 11.26.10 Active
11.25.10 The Appalachian Carol 0.00 (0) 1573 (4) Holiday 12.30.10 Active
11.20.10 Carol of the Bells 2010 0.00 (0) 2196 (8) Holiday 11.27.10 Active
11.04.10 Do you hear what I hear? 0.00 (0) 1444 (1) Holiday 12.16.10 Active
10.31.10 Little Drummer Boy 0.00 (0) 1801 (6) Holiday 11.06.10 Active
10.20.10 Fortuna Imperatix Mundi 0.00 (0) 1771 (10) Classical 11.20.10 Active
09.26.10 Scarborough Fair 9.25 (1) 1695 (5) Folk (traditional) 10.26.10 Active
09.21.10 The Picture Moves 0.00 (0) 1694 (5) Cinematic Soundtrack 09.23.10 Active
09.11.10 The Cherry Tree 0.00 (0) 1483 (4) Classical 09.13.10 Active
09.10.10 Ride of the Valkyries 0.00 (0) 1592 (4) Classical 09.12.10 Active
09.08.10 Loch Lomond 0.00 (0) 1847 (9) Celtic 01.07.11 Active
09.08.10 Rain of the Orient 0.00 (0) 1271 (2) Experimental 09.08.10 Active
11.27.09 The Journey Begins Final Version 8.50 (2) 3156 (6) Cinematic Soundtrack 02.15.10 Active
11.21.09 Carol of the Bells 2009 10.00 (1) 1989 (5) Holiday 12.18.09 Active
11.14.09 O Come All Ye Faithful 10.00 (1) 1731 (9) Holiday 12.17.09 Active
11.01.09 The Journey Begins 8.63 (2) 1977 (4) Cinematic Soundtrack 11.01.09 Active
10.03.09 Shield My Kinsmen 10.00 (1) 2167 (6) Classical 10.09.09 Active
08.01.09 The Sailing of the Prydwen 10.00 (1) 2084 (9) Classical 08.05.09 Active
06.16.09 The Piper At The Gates Of Dawn 8.50 (2) 2126 (8) Cinematic Soundtrack 07.16.09 Active
06.16.09 The Willows Theme 8.50 (2) 2054 (3) Cinematic Soundtrack 07.16.09 Active
06.11.09 Dawn Mists 9.00 (3) 2062 (12) Cinematic Soundtrack 06.15.09 Active
04.30.09 Henry Martin 8.75 (2) 2244 (3) Classical 05.04.09 Active
04.14.09 Mille Regretz 9.50 (2) 1972 (5) Classical 05.10.09 Active
04.09.09 The Final Triumph of the Messiah 10.00 (1) 1942 (2) Classical 04.10.09 Active
04.07.09 Foggy Dew 10.00 (1) 2061 (10) Folk (traditional) 11.27.09 Active
04.06.09 When Shall My Sorrowful Sighing 10.00 (1) 1813 (6) Classical 04.14.09 Active
04.06.09 Catherine's Theme (CCC version) 10.00 (1) 2065 (9) Classical 03.13.14 Active
04.02.09 Catherine's Theme 10.00 (1) 2281 (12) Game Soundtrack 04.05.09 Active
03.29.09 The Old Rugged Cross 10.00 (1) 5635 (9) Classical 04.10.09 Active
03.29.09 Abide With Me 10.00 (1) 2724 (1) Holiday 03.29.09 Active
03.19.09 Wings of the Phoenix 10.00 (1) 4612 (8) Game Soundtrack 03.25.09 Active
02.14.09 The lonely heart 10.00 (2) 2402 (12) Classical 03.25.09 Active
01.20.09 Dance of the Dryad 8.63 (2) 2386 (6) Classical 04.05.09 Active
01.18.09 What Childe Is This? (Greensleeves) 10.00 (1) 2037 (5) Folk (traditional) 01.19.09 Active
01.18.09 Hey, Ho, Nobody Home. 0.00 (0) 2663 (4) Folk (traditional) 01.19.09 Active
01.17.09 Scarborough Fair 10.00 (2) 2496 (8) Folk (traditional) 03.21.09 Active
01.15.09 Evensong 10.00 (1) 2114 (7) Classical 01.15.09 Active
01.13.09 Charge of the Light Brigade 10.00 (1) 2629 (8) Spoken Word-Poetry 01.19.09 Active
01.01.09 Luthien's Madrigal 8.63 (2) 2460 (15) Classical 01.10.09 Active
12.20.08 Watkins Ale 8.81 (4) 2928 (11) Folk (traditional) 02.21.09 Active
12.12.08 Rose, Rose, Rose Red 10.00 (1) 4770 (8) A Cappella 12.13.08 Active
12.01.08 The Angel Gabriel 10.00 (1) 4613 (11) Holiday 12.09.08 Active
11.30.08 It Came Upon the Midnight Clear 9.38 (2) 2519 (6) Holiday 12.07.08 Active
11.14.08 Sing out, sweet bells (final) 8.50 (2) 2465 (2) Holiday 11.17.08 Active
11.09.08 Sing Out, Sweet Bells 10.00 (1) 2749 (5) Holiday 11.10.08 Active
11.07.08 Carol of the Bells 10.00 (1) 9995 (11) Holiday 11.12.08 Active
11.05.08 The Nutcracker March (Tchaikovsky) 9.44 (4) 4456 (3) Classical 11.15.08 Active
11.01.08 Minstrel of the Court (Final version) 9.83 (3) 2571 (8) Classical 11.06.08 Active
11.01.08 Minstrel of the Court 10.00 (1) 1884 (1) Classical 11.01.08 Active
10.28.08 Requiem for a Songbird 10.00 (1) 2442 (7) Classical 11.01.08 Active
10.25.08 The Lonely Path 10.00 (3) 2646 (7) Classical 10.30.08 Active
10.25.08 A lonely road 10.00 (1) 2652 (8) Game Soundtrack 01.15.09 Active
10.21.08 Tit-willow 10.00 (1) 4045 (4) A Cappella 10.22.08 Active
08.13.08 Vespers 8.46 (6) 2885 (16) Classical 10.21.08 Active
08.08.08 Silverhawk's Theme 9.09 (8) 4796 (17) Game Soundtrack 09.11.11 Active
07.30.08 Lambton Worm 8.30 (5) 8369 (6) A Cappella 11.18.08 Active
07.21.08 Arrival of the Queen of Sheba 8.54 (7) 3744 (12) Classical 07.29.08 Active
07.14.08 Allan Water 8.17 (3) 1904 (2) Folk (traditional) 07.16.08 Active
07.14.08 Dance Royal 8.25 (3) 2051 (3) Classical 07.14.08 Active
07.12.08 Lament of Tristan 9.08 (3) 3463 (10) Classical 07.13.08 Active
07.11.08 Las, Las, Las, Las Par Grand Delit 8.80 (5) 2830 (6) Baroque 07.17.08 Active
07.11.08 Hec Dies 8.92 (3) 2242 (5) Baroque 07.12.08 Active
06.26.08 Is there still hope? 9.13 (2) 2170 (6) Ambient 08.02.08 Active
06.25.08 Cernunnos of the Wildwood 9.42 (3) 2727 (7) Cinematic Soundtrack 06.27.08 Active
06.21.08 The Goddess Chant 8.88 (2) 3491 (8) Acoustic 06.27.08 Active
05.31.08 Morning has broken 8.13 (2) 3834 (11) A Cappella 09.01.08 Active
05.29.08 Avalon - the Isle of Apples 9.15 (5) 3110 (10) Film Scoring 06.03.08 Active
05.23.08 Softly, Softly 8.70 (5) 2648 (14) Film Scoring 12.23.08 Active
05.18.08 The Sweetest Joy 9.06 (4) 2346 (6) A Cappella 05.24.08 Active
05.01.08 Saviours of Mankind 9.00 (2) 2132 (5) Spoken Word-Poetry 05.02.08 Active
04.14.08 The Last Day main theme 9.00 (3) 1792 (6) Acoustic 05.24.08 Active
03.01.08 Fanfare for Chikoppi 8.83 (3) 2137 (6) Other 05.03.08 Active
02.28.08 Bedlam Boys 8.86 (7) 4967 (8) Folk (traditional) 04.14.08 Active
02.23.08 The Avalon Suite 9.17 (16) 3192 (21) Ambient 05.22.08 Active
02.22.08 Avalon - Isle of Apples 9.14 (7) 2660 (9) Ambient 02.28.08 Active
01.30.08 Free Rein 8.88 (2) 2092 (1) Game Soundtrack 01.30.08 Active
01.30.08 Faerie Glade 9.00 (3) 2135 (5) New Age 03.21.09 Active
01.30.08 Storms 9.38 (4) 2040 (5) New Age 05.01.08 Active
01.15.08 Into the Unknown - Myst inspired part two 8.75 (2) 2337 (6) Game Soundtrack 05.01.08 Active
01.15.08 Into the Unknown - Myst inspired 8.63 (2) 2200 (4) Game Soundtrack 05.01.08 Active
01.04.08 King Caspian X 9.00 (2) 2847 (6) Cinematic Soundtrack 02.22.08 Active
01.04.08 King Peter's Duel 0.00 (0) 1939 (2) Cinematic Soundtrack 09.05.08 Active
01.04.08 Queen Lucy the Valiant 8.38 (2) 2419 (1) Cinematic Soundtrack 01.04.08 Active
01.04.08 King Miraz 9.00 (1) 2197 (3) Cinematic Soundtrack 09.07.08 Active
01.04.08 Nikabrik's Ill Counsel 0.00 (0) 2128 (2) Cinematic Soundtrack 09.07.08 Active
01.04.08 The Lion's Standard 7.25 (1) 2089 (2) Cinematic Soundtrack 09.07.08 Active
01.04.08 Aslan's Howe 0.00 (0) 2044 (1) Cinematic Soundtrack 01.04.08 Active
01.04.08 Queen Susan's Horn (Return to Cair Paravel) 0.00 (0) 2330 (1) Cinematic Soundtrack 01.04.08 Active
01.04.08 Caspian's Army 0.00 (0) 2248 (3) Cinematic Soundtrack 07.16.09 Active
11.29.07 Glenstorm's Prophecy 8.63 (2) 2111 (2) Cinematic Soundtrack 12.03.07 Active
10.03.07 Trufflehunter and Trumpkin 8.33 (3) 2464 (6) Cinematic Soundtrack 02.20.10 Active
10.02.07 Cornelius's Secret 8.67 (3) 2336 (2) Cinematic Soundtrack 10.22.07 Active
10.02.07 Prince Caspian 8.67 (3) 2822 (1) Cinematic Soundtrack 10.02.07 Active
07.21.07 The Long Journey 8.75 (6) 2607 (10) Cinematic Soundtrack 07.23.07 Active
05.16.07 Jerusalem 7.50 (2) 2589 (2) Classical 01.21.11 Active
05.07.07 Pelennor Fields 0.00 (0) 2679 (3) Cinematic Soundtrack 05.07.07 Active
05.02.07 The Cruel Mother 7.50 (1) 2224 (4) A Cappella 02.27.08 Active
05.02.07 Minas Tirith 8.38 (2) 2400 (3) Cinematic Soundtrack 05.07.07 Active
05.02.07 Concerning Hobbits 9.33 (3) 2601 (1) Cinematic Soundtrack 05.03.07 Active
05.01.07 Flight to the Ford 8.88 (4) 2459 (6) Cinematic Soundtrack 05.07.07 Active
05.01.07 The White Tree Blooms 0.00 (0) 2062 (1) Cinematic Soundtrack 05.01.07 Active
04.21.07 The Nine 8.25 (3) 2738 (5) Cinematic Soundtrack 09.08.17 Active
03.13.07 The Sailor's Return 8.67 (3) 2545 (3) Spoken Word-Poetry 10.10.10 Active
03.07.07 The Grey Havens 8.25 (3) 2481 (6) Cinematic Soundtrack 03.08.07 Active
02.21.07 Heaven's Gate 8.13 (2) 2238 (9) Cinematic Soundtrack 02.21.07 Active
02.15.07 Priestess of Avalon - extended version 8.00 (1) 2027 (2) Cinematic Soundtrack 02.16.07 Active
01.20.07 The Last Day - short audio story 8.38 (4) 3156 (9) Spoken Word-Poetry 01.23.07 Active
01.12.07 Adagio in D Major 7.50 (1) 2268 (5) Classical 01.19.07 Active
01.09.07 The Elves 8.40 (5) 2590 (6) Cinematic Soundtrack 01.09.07 Active
01.05.07 Piano movement I 7.94 (4) 2298 (6) Classical 01.08.07 Active
01.05.07 Riu Riu Chiu (Version 2) 6.75 (2) 2232 (1) Classical 01.08.07 Active
01.03.07 The Soldier's Love 8.00 (3) 2589 (4) Classical 01.06.07 Active
01.02.07 Riu, Riu, Chiu 0.00 (0) 2402 (2) Classical 02.20.07 Active
12.13.06 Winter-Land 8.25 (1) 2244 (2) Cinematic Soundtrack 12.13.06 Active
12.13.06 A Perfect Circle 8.38 (2) 2172 (4) Cinematic Soundtrack 12.13.06 Active
12.12.06 Gabriel's Message 8.94 (4) 3771 (9) Holiday 01.02.07 Active
12.01.06 In the Bleak Midwinter 8.00 (1) 2452 (6) Holiday 12.03.06 Active
11.29.06 Priestess of Avalon 7.92 (3) 2906 (2) Film Scoring 11.30.06 Active
11.28.06 The Charge (or 'Onwards!') 0.00 (0) 2540 (2) Film Scoring 11.29.06 Active
11.28.06 Priestess of Avalon 7.75 (2) 2759 (10) Film Scoring 11.30.06 Active
05.24.06 Riddles in the Dark 8.67 (3) 3848 (5) Film Scoring 02.24.10 Active
03.23.06 The Magic Maker 8.00 (1) 2548 (2) Film Scoring 03.24.06 Active
03.21.06 Spring Showers 8.13 (2) 2832 (13) Film Scoring 03.23.06 Active
03.09.06 Born to the Rapier 8.40 (5) 3545 (19) A Cappella 01.21.09 Active
03.09.06 The Siege 8.00 (5) 2722 (9) Film Scoring 03.12.06 Active
03.07.06 All for the hand of a Lady 7.94 (4) 2913 (7) Celtic 04.14.08 Active
02.15.06 Fairie Grove 6.25 (1) 2704 (6) Film Scoring 02.16.06 Active
01.27.06 Three Ravens (re-done) 8.60 (5) 2737 (9) Folk (traditional) 12.02.11 Active
01.17.06 Love Theme (The Forest) 7.88 (6) 3791 (17) Film Scoring 02.13.06 Active
01.16.06 Ride of the Thunder Gods 8.00 (3) 2837 (8) Film Scoring 01.18.06 Active
01.15.06 Herne the Hunter 8.25 (3) 4044 (9) Film Scoring 03.09.06 Active
01.14.06 Mystic Midnight Dance (with Vocals) 7.92 (3) 2763 (12) Inspirational (contemporary) 02.13.06 Active
01.13.06 Death 7.33 (3) 2195 (4) Open Collaborations 02.17.06 Active
11.03.05 Fairy-Land - Poe. 7.42 (3) 2458 (2) Spoken Word-Poetry 12.06.05 Active
11.03.05 Shakespeare's Sonnet XII 8.05 (5) 3378 (9) Spoken Word-Poetry 05.07.07 Active
11.03.05 Coventry Carol (take 3) 7.58 (3) 2613 (7) Inspirational (contemporary) 05.03.07 Active
11.01.05 Coventry Carol (second version) 7.95 (5) 2697 (11) Inspirational (contemporary) 11.01.05 Active
11.01.05 Coventry Carol 6.21 (6) 3035 (9) Inspirational (contemporary) 01.13.06 Active
10.26.05 Grand Melee 7.50 (3) 2833 (4) Spoken Word-Poetry 10.31.05 Active
10.25.05 Avalon - Song of Solitude 7.83 (3) 3242 (12) Classical 01.13.06 Active
10.19.05 Elven Mourning 7.69 (4) 2451 (6) Other 10.21.05 Active
10.16.05 Duct Tape 7.96 (7) 6244 (14) Comedy-Satire-Parody 10.18.12 Active
10.15.05 The Wife of Usher's Well 7.41 (8) 5334 (7) Ballad 10.23.05 Active
10.14.05 Arafel's lament (redone with new mic) 7.65 (5) 2828 (7) Other 10.14.05 Active
10.12.05 Arafel's Lament 6.88 (4) 2401 (9) Other 10.13.05 Active
10.10.05 Deor 7.60 (5) 2920 (10) Open Collaborations 10.11.05 Active
09.25.05 Gaudete 6.63 (2) 2568 (7) Classical 10.08.05 Active
09.23.05 Song of the Sea Final (ish) version 5.75 (1) 2038 (5) Ballad 10.14.05 Active
09.19.05 Song of the Sea (instrumental) 6.60 (5) 2290 (7) Other 09.20.05 Active
09.17.05 Song of the Sea 7.17 (3) 2392 (6) Sampler 09.22.05 Active
09.15.05 She moved through the Fair 6.08 (6) 3502 (9) Folk (contemporary) 09.17.05 Active
09.13.05 Three Ravens 7.88 (2) 2658 (8) Folk (contemporary) 10.19.05 Active
09.13.05 Now is the time of winter take two... 7.86 (7) 2376 (6) Open Collaborations 01.08.06 Active
09.12.05 Now is the Time of Winter 7.15 (10) 3030 (16) Other 09.13.05 Active
09.12.05 Mithrandir round 4.50 (1) 2225 (3) Other 09.13.05 Active
Favorite Songs (98)
Title Artist Date Genre
Alone Llarion 05.26.11 Jazz (instrumental)
Lullaby for the Inner Child drakonis 11.11.09 Ballad
Shaolin Munk Funk (w/ musichead & awigze) maxruehl 11.07.09 Cinematic Soundtrack
Dasher's Blues Ren-Tin-10 11.07.09 Holiday
The Night I.G.M. 04.05.09 Acoustic
Spirit Of A Northern Town paddler 03.28.09 Classical
Super Duper (MJRF) Skean 02.13.09 Art Rock
Shenandoah (MJRF) Mystified 01.31.09 New Age
Dream! SmokeyVW 01.21.09 Pop (Alternative)
Retreat of the Dragons (Mark Holbrook Collab) drakonis 01.19.09 New Age
heavens shaky sky egobandit 01.15.09 Alternative Rock
Cessation (w/ LunaTrick & Birdman Wayne) EZamor 01.12.09 Gothic Rock
It Ends Where It Begins (remastered) EEFliess 01.08.09 Rock
Throw Your Shoes + MJ Pub Chorus jiguma 12.23.08 Alternative Rock
Carol of the Bells (2008) ronnielong 12.02.08 Hard Rock
Jingle Bells dreadmon 12.01.08 Holiday
Kirie Isus Hriste Eleison imas (Lord Jesus Christ have mercy on us) victorias_playground 12.01.08 Other
Oh Come Emanuel Scott Carmichael 11.29.08 Holiday
Gabriel's Message kristyjo 11.28.08 Holiday
Confused edpdx 11.26.08 Experimental
Yuletide Joy (MacJammers Ensemble) MacJammersUnited 11.25.08 Holiday
Sunday Morning edpdx 11.25.08 Ambient
Joy To The World dreadmon 11.24.08 Holiday
Danse Arabe EZamor 11.21.08 Holiday
Star of Christmas Morning (instrumental) cjhoose 11.17.08 Holiday
gold at my feet Mystified 11.06.08 New Age
Among The Trees kassia 11.06.08 Cinematic Soundtrack
Conversation Song, by Feter Roxylee 11.05.08 Folk (contemporary)
Sapience (No Codes, Can't Send Notes) michael2 10.29.08 Alternative Rock
Mystic Midnight Dance - Acoustic Instrumental Dadai.2 10.28.08 Celtic
Cessation (My Lyrics To EZamor's Song) CraizeeMusic 10.28.08 Open Collaborations
Take Time To Be Holy Mystified 10.28.08 A Cappella
Delayer stevel 10.26.08 Art Rock
Smile ( Our House Coffehouse) Feter 10.11.08 Acoustic
The Western Front ThroughRivers 08.12.08 Folk-Rock
Memory MarkHolbrook 08.07.08 Alternative Rock
What Should I Say(w/Dirigent-RSchletty) Feter 07.28.08 Renaissance
The Finale-(EKNM MJ challenge) Feter 07.25.08 Classical
06 We flows together (And be happy married) Skean 07.17.08 Cinematic Soundtrack
Another Round--EKNM Mystified 07.14.08 Renaissance
Electric Lute Land(EKNM) Ibstrat 07.12.08 Classical
The King (EKNM Fest) sloparts 07.11.08 Classical
Ein Kleine Nacht Music MJ Opening Feter 07.11.08 Baroque
Tears of Kokopelmana dreadmon 07.10.08 Native American
Capitalize ThroughRivers 07.09.08 Folk-Rock
Between Green Sleeves guitapick 06.02.08 Acoustic
the road I travel... Mystified 05.30.08 Ambient
Hail To The Sheriff (Robin Hood) TobinMueller 05.27.08 Showtunes
Out Of The Forest (Robin Hood) TobinMueller 05.20.08 Showtunes
Too Many Years (Robin Hood) TobinMueller 05.15.08 Showtunes
The Secret(w/Roxylee) Feter 05.12.08 Acoustic
beautiful wall (with Einarus) Mystified 05.01.08 Cinematic Soundtrack
Chronicles of a Dysphoric Translator (Pt. I-III) rsorensen 04.28.08 Progressive Rock
WILD Alannah 03.08.08 Downtempo
Clint's Song gail60 01.04.08 Piano
AWAY IN A MANGER (Dadai-Richard & Anne Schletty-Matthew Holmstrom-Youth Choir) Postludes Trio 12.19.07 Holiday
'Court'eous Music (LLSP) Mystified 11.30.07 Renaissance
Minstrel Boy (soundtrack mix) Mystified 08.13.07 Cinematic Soundtrack
Minstrel Boy A Go-Go w/ R.Schletty alfalpha 07.25.07 MuzaK
The Minstrel Boy (Rebsie Vocal Mix) VicDiesel 07.23.07 A Cappella
Cerulean Dream - Finale Henke 07.22.07 Cinematic Soundtrack
Lost Boys Vic Holman 07.20.07 Alternative Rock
Kyrie Mystified 07.07.07 A Cappella
Les Miserables - Finale mer 07.01.07 Cinematic Soundtrack
Sailor's Return chinaman2 06.12.07 Spoken Word-Poetry
AROUND THE LOOP IN 30 WAYS (REALLY QUICKLY!) alfalpha 05.29.07 Ethnic-International
Ode of Hope Feter 05.01.07 Classical
The Misty Mall of Avalon composerclark 02.03.07 Classical
That's the stuff CIPHER 01.18.07 Other
Simply Fine Ed Hannifin 01.02.07 Folk (contemporary)
Ever After (Vocals by Leon) BranDaMan 01.01.07 Pop (mainstream)
Auld Lang Syne 2007 dreadmon 12.29.06 Folk (traditional)
Silent Night Mystified 12.17.06 Holiday
Yet Another Holy Night Leon 12.17.06 Holiday
Ascension jason.s 12.13.06 Classical
Do You Hear? snowdragon 12.12.06 Holiday
Remembrance jason.s 12.11.06 Cinematic Soundtrack
Journey To The Centre Of The Loop alfalpha 12.09.06 Progressive Rock
Sunrise jason.s 12.11.06 Classical
oh come Emanuel Scott Carmichael 12.08.06 Holiday
Never Wanna Cry - Remastered Aaron David 11.27.06 Acoustic
Lark haribo 11.24.06 Cinematic Soundtrack
House of the Rising Sun Collab w/Amagi Vic Holman 11.17.06 Folk-Rock
Dungeons in the Secret Castle (remixed) Mystified 11.15.06 Cinematic Soundtrack
Like As The Waves (v1) by Dadai & RSchletty Postludes Trio 03.24.06 Folk-Rock
Going Through The Motions poodyglitz 01.16.06 Gospel
The Road (w/ Amanda Mason) ka-klick 01.11.06 Folk-Rock
Santa Is Stuck thetiler 12.19.05 Holiday
DarkWood's Dragons snowdragon 11.04.05 Folk-Rock
And they kissed them goodnight CIPHER 11.03.05 Ambient
Duct Tape (w/ Elfdaughter) cjorgensen 10.30.05 Comedy-Satire-Parody
Remember (with Mystified) cjhoose 10.16.05 New Age
ElfDaughter's 'Song of the Sea' (Alfalpha remix) alfalpha 09.24.05 Open Collaborations
Rehlehna Mystified 09.17.05 Cinematic Soundtrack
Am I Being Unfair daphna 09.15.05 Pop (mainstream)
God Didn't Tell You (with Dadai sittin' in) snowdragon 09.05.05 Folk-Rock
Ember-Rekindled drakonis 09.05.05 Open Collaborations
Dragon in the Mist (with Dadai sittin' in) snowdragon 08.05.05 Rock & Roll
Favorite MacJammers (10)
Fans (50)
Music Background Not much. I was in the school choir when I was young, but stopped when I joined the 6th form. I was always interested in music - continually singing, learning to play the piano a little,teaching myself the guitar and the harp, the harmonica and the penny whistle, the panflute and the bodhran. I then went on to join the SCA (Medieval re-enactment group) where I fuled my love for medieval and folk songs. I became a member of the Minstrel's guild, which helped build up my confidence a little, and then I found this site. The rest you know.
Music Skills Piano Guitar Harp Penny whistle Panflute Harmonica Bodhran
Music Hardware Keystation mini32
Music Software PC - Magix Music maker 2015 and Garritan
Keywords medieval, film, film soundtrack, folk, harp,